Regional Weather Roundup
Issued by NWS

Home | Current Version | Previous Version | Text Only | Print | Product List | Glossary On
Versions: 1 2 3 4 5 6 7 8 9 10 11 12 13 14 15 16 17 18 19 20 21 22 23 24 25 26 27 28 29 30 31 32 33 34 35 36 37 38 39 40 41 42 43 44 45 46 47 48 49 50
000
ASUS43 KMKX 132159
RWRWI

WISCONSIN REGIONAL WEATHER ROUNDUP
NATIONAL WEATHER SERVICE MILWAUKEE/SULLIVAN WI
400 PM CST WED DEC 13 2017

NOTE: "FAIR" INDICATES FEW OR NO CLOUDS BELOW 12,000 FEET WITH NO
SIGNIFICANT WEATHER AND/OR OBSTRUCTIONS TO VISIBILITY.

WIZ001-002-006>008-014>016-023>028-132300-
NORTHWEST WISCONSIN

CITY           SKY/WX    TMP DP  RH WIND       PRES   REMARKS
SUPERIOR ARPT  CLOUDY    25  19  75 E6        29.75R WCI  18
ASHLAND        LGT SNOW  22  17  81 NE9       29.72R WCI  12
HAYWARD        MOCLDY    19  12  74 N9        29.67R WCI   8
SIREN          PTCLDY    23  15  70 N14G20    29.70R WCI  11
CUMBERLAND     CLOUDY    21  12  68 N16       29.65R WCI   7
RICE LAKE      CLOUDY    20  13  73 N10G17    29.69R WCI   9
CHETEK         CLOUDY    20  14  78 N12G17    29.65R WCI   8
LADYSMITH      CLOUDY    19  15  82 N9        29.64R HAZE    WCI   8
EAU CLAIRE     NOT AVBL
MENOMONIE      CLOUDY    22  14  70 N16G23    29.66R WCI   9
NEW RICHMOND   CLOUDY    24  16  72 N12G18    29.69R WCI  13
OSCEOLA        CLOUDY    24  19  78 NW12      29.72R WCI  13
$$

WIZ003>005-009-010-017-018-132300-
NORTH CENTRAL WISCONSIN

CITY           SKY/WX    TMP DP  RH WIND       PRES   REMARKS
MANITOWISH WTR LGT SNOW  15  13  91 N7        29.60R WCI   5
ARBOR VITAE    LGT SNOW  17  13  86 N9        29.58R WCI   5
WOODRUFF       LGT SNOW  17  13  86 N9        29.58R WCI   5
RHINELANDER    LGT SNOW  17  14  88 NE7       29.58R FOG     WCI   8
EAGLE RIVER    LGT SNOW  17  12  82 NE9       29.58R WCI   5
LAND O LAKES   LGT SNOW  17  13  86 N7        29.61R WCI   7
PHILLIPS       LGT SNOW  16  13  88 N13       29.60R WCI   2
TOMAHAWK       LGT SNOW  17  13  86 N9        29.57R WCI   5
MEDFORD        LGT SNOW  18  13  84 N15       29.54R WCI   3
MERRILL        LGT SNOW  18  14  84 NE13      29.56R WCI   5
$$

WIZ029-030-035-036-043>047-132300-
CENTRAL WISCONSIN

CITY           SKY/WX    TMP DP  RH WIND       PRES   REMARKS
WAUSAU         LGT SNOW  20  16  84 N12G21    29.53R VSB 3/4 WCI   8
MOSINEE        LGT SNOW  19  18  93 N14G21    29.54R VSB 3/4 WCI   6
MARSHFIELD     LGT SNOW  19  15  84 N13G20    29.53R FOG     WCI   6
STEVENS POINT  MIX PCPN  20  19  96 N10       29.50R WCI   9
WAUPACA        LGT SNOW  27  24  87 N16G22    29.48R VSB 3/4 WCI  15
WAUTOMA        LGT SNOW  23  20  88 MISG        N/A  VSB 1
WISC RAPIDS    LGT SNOW  21  17  84 N15       29.53R VSB 1   WCI   8
CAMP DOUGLAS   MOCLDY    21  14  73 NW14G23   29.53R WCI   8
$$

WIZ011>013-019>022-031-037>040-048>050-132300-
NORTHEAST WISCONSIN

CITY           SKY/WX    TMP DP  RH WIND       PRES   REMARKS
ANTIGO         LGT SNOW  17  14  88 N14G20    29.52R WCI   3
SHAWANO        LGT SNOW  24  20  86 N20       29.52R WCI   9
OCONTO         CLOUDY    25  23  90 E12G20    29.50R WCI  14
STURGEON BAY   LGT SNOW  24  21  88 NE14G21   29.52R VSB 3/4 WCI  12
GREEN BAY      SNOW      26  22  84 NE21      29.48R VSB 1/2 WCI  12
MANITOWOC      LGT SNOW  26  24  92 NE9       29.44R VSB 1   WCI  17
APPLETON       LGT SNOW  27  21  80 NE15G21   29.43R VSB 1   WCI  15
CLINTONVILLE   NOT AVBL
OSHKOSH        SNOW      26  23  88 NE18G30   29.43R VSB 1/2 WCI  13
$$

WIZ032>034-041-042-053>061-132300-
SOUTHWEST WISCONSIN

CITY           SKY/WX    TMP DP  RH WIND       PRES   REMARKS
LA CROSSE      CLOUDY    26  18  71 NW22G31   29.60R WCI  12
SPARTA         CLOUDY    23  17  78 NW12G22   29.57R WCI  12
VIROQUA        CLOUDY    23  20  89 NW14G28   29.52R WCI  11
BOSCOBEL       CLOUDY    28  19  69 N21G31    29.56R WCI  15
PRAIRIE DU CHI CLOUDY    28  19  69 NW22G28   29.55R WCI  15
PLATTEVILLE    CLOUDY    29  23  78 NW23G29   29.48R WCI  16
$$

WIZ056-057-062-063-064-067-068-132300-
SOUTH CENTRAL WISCONSIN

CITY           SKY/WX    TMP DP  RH WIND       PRES   REMARKS
REEDSBURG      CLOUDY    23  15  71 NW18G29   29.50R WCI   9
BARABOO/DELLS  CLOUDY    23  16  74 NW16G25   29.47R WCI  10
LONE ROCK      NOT AVBL
MINERAL POINT  CLOUDY    28  23  80 NW22G32   29.45R WCI  15
MADISON        CLOUDY    25  17  72 NW17G33   29.45R WCI  12
MIDDLETON      CLOUDY    28  20  74 NW20G30   29.44R WCI  14
WATERTOWN      MIX PCPN  26  23  88 NW15G30   29.38R WCI  14
MONROE         CLOUDY    30  21  69 NW23G36   29.41R WCI  17
JANESVILLE     CLOUDY    32  21  64 NW24G35   29.40R WCI  19
$$

WIZ051-052-058>065-066-070>072-132300-
SOUTHEAST WISCONSIN

CITY           SKY/WX    TMP DP  RH WIND       PRES   REMARKS
MILWAUKEE      FLURRIES  31  26  82 NW14      29.34R WCI  21
WAUKESHA       LGT SNOW  27  21  80 NW18      29.35R WCI  13
MILWAUKEE/TIMM LGT SNOW  28  23  80 NW14      29.35R WCI  17
RACINE         LGT SNOW  31  26  82 NW10G29   29.34R WCI  22
BURLINGTON       N/A    N/A N/A N/A MISG        N/A
KENOSHA        CLOUDY    33  23  66 NW17G30   29.33R WCI  22
FOND DU LAC    LGT SNOW  26  21  81 NW13      29.39R WCI  15
SHEBOYGAN      SNOW      25  24  96 NE17      29.39R VSB 1/2 WCI  12
WEST BEND      LGT SNOW  27  27 100 NW12      29.34R WCI  16
JUNEAU         FLURRIES  25  21  86 NW9G20    29.39R WCI  15
$$

LSZ147-162-132300-
LAKE SUPERIOR

STATION/POSITION TIME  TEMP    WIND        PRES    WAVE
                       AIR SEA DIR/SP/G            HT/PER
                 (UTC) (F)     (DEG/KT/KT) (MB)    (FT/S)
DEVILS ISLAND    2100   25      40/ 31/ 35 1006.8R
SAXON HARBOR     2140   24                 1005.4R
$$

LMZ867-665-643>646-132300-
LAKE MICHIGAN

STATION/POSITION TIME  TEMP    WIND        PRES    WAVE
                       AIR SEA DIR/SP/G            HT/PER
                 (UTC) (F)     (DEG/KT/KT) (MB)    (FT/S)
NORTHPORT PIER   2140   24      40/ 18/ 24 1001.4R
KEWAUNEE LAKESHO 2124   26      70/ 12/ 19  996.4
SHEBOYGAN LAKESH 2100   27      80/ 28/ 32  993.5R
PORT WASHINGTON  2140   28     310/  7/ 12  994.9R
MILWAUKEE LAKESH 2130   29     310/ 11/ 14   N/A
KENOSHA   LAKESH 2100   32     310/ 12/ 15  992.6
$$

TC  - TEMPERATURE IN CELSIUS
VSB - VISIBILITY IN STATUTE MILES
WCI - WIND CHILL INDEX
HX  - HEAT INDEX





USA.gov is the U.S. government's official web portal to all federal, state and local government web resources and services.